Bellmunt (Osona)





Hora UTC 08:00
Temperatura 3.2 ºC
Humedad 39.0 %
Presión 1026.1 hPa
Pluja 0.0 mm
Velocidad viento 1.6 km/h
Dirección viento S

Datos diarios 2023-01-30



Hora UTC (invierno +1h; verano +2h)
Temperatura (ºC) Humedad (%) Presión (hPa) Velocidad viento (km/h) Precipitación (mm)
Hora UTC Aire Humedad Presión Vel. Dir. Vel. Max Dir. Intent. máx 5 min.
00:05 -0.7 68.0 1026.6 14.5 WNW 14.5 0.0
00:10 -0.6 68.0 1026.5 8.0 WNW 14.5 0.0
00:15 -0.6 69.0 1026.5 11.3 WNW 14.5 0.0
00:20 -0.4 68.0 1026.4 12.9 WNW 14.5 0.0
00:25 -0.3 68.0 1026.3 12.9 WNW 14.5 0.0
00:30 -0.3 68.0 1026.3 11.3 WNW 14.5 0.0
00:35 -0.3 68.0 1026.3 12.9 WNW 12.9 0.0
00:40 -0.3 67.0 1026.3 12.9 WNW 12.9 0.0
00:45 -0.3 67.0 1026.2 11.3 WNW 12.9 0.0
00:50 -0.2 67.0 1026.3 11.3 WNW 12.9 0.0
00:55 -0.2 66.0 1026.2 11.3 WNW 12.9 0.0
01:00 -0.2 67.0 1026.1 11.3 WNW 12.9 0.0
01:05 -0.2 67.0 1026.1 11.3 WNW 12.9 0.0
01:10 -0.2 67.0 1026.0 12.9 WNW 12.9 0.0
01:15 -0.1 66.0 1026.1 12.9 WNW 12.9 0.0
01:20 0.0 65.0 1026.1 12.9 WNW 14.5 0.0
01:25 -0.1 65.0 1026.0 12.9 WNW 14.5 0.0
01:30 -0.1 66.0 1026.0 11.3 WNW 14.5 0.0
01:35 -0.1 66.0 1026.0 11.3 WNW 12.9 0.0
01:40 -0.1 66.0 1026.1 11.3 WNW 12.9 0.0
01:45 -0.2 66.0 1026.0 11.3 WNW 12.9 0.0
01:50 -0.1 65.0 1025.9 12.9 WNW 14.5 0.0
01:55 0.0 64.0 1025.9 12.9 WNW 16.1 0.0
02:00 0.0 64.0 1025.9 11.3 WNW 16.1 0.0
02:05 -0.1 64.0 1025.9 9.7 W 14.5 0.0
02:10 0.0 62.0 1025.9 11.3 W 14.5 0.0
02:15 0.1 63.0 1025.8 11.3 W 14.5 0.0
02:20 0.0 63.0 1025.8 11.3 W 12.9 0.0
02:25 -0.1 64.0 1025.8 8.0 WNW 12.9 0.0
02:30 -0.1 62.0 1025.8 9.7 W 11.3 0.0
02:35 0.1 61.0 1025.7 9.7 W 12.9 0.0
02:40 0.1 61.0 1025.6 6.4 W 12.9 0.0
02:45 0.1 60.0 1025.6 9.7 W 11.3 0.0
02:50 0.1 60.0 1025.5 11.3 W 11.3 0.0
02:55 0.2 59.0 1025.5 6.4 W 12.9 0.0
03:00 0.1 62.0 1025.5 4.8 W 12.9 0.0
03:05 -0.1 63.0 1025.5 4.8 WNW 6.4 0.0
03:10 -0.2 64.0 1025.4 4.8 WNW 6.4 0.0
03:15 -0.3 64.0 1025.4 4.8 WNW 6.4 0.0
03:20 -0.2 61.0 1025.4 6.4 WNW 6.4 0.0
03:25 0.1 61.0 1025.4 6.4 W 8.0 0.0
03:30 0.3 60.0 1025.3 6.4 W 8.0 0.0
03:35 0.3 59.0 1025.3 6.4 WNW 9.7 0.0
03:40 0.4 59.0 1025.2 6.4 WNW 8.0 0.0
03:45 0.4 57.0 1025.3 11.3 WSW 11.3 0.0
03:50 0.6 56.0 1025.2 11.3 W 11.3 0.0
03:55 0.6 58.0 1025.3 6.4 WNW 11.3 0.0
04:00 0.4 56.0 1025.2 16.1 W 16.1 0.0
04:05 0.8 53.0 1025.3 14.5 W 16.1 0.0
04:10 0.9 54.0 1025.3 12.9 W 16.1 0.0
04:15 0.9 53.0 1025.2 12.9 W 16.1 0.0
04:20 0.8 54.0 1025.3 12.9 WNW 14.5 0.0
04:25 0.7 53.0 1025.3 11.3 W 14.5 0.0
04:30 0.8 53.0 1025.3 12.9 W 16.1 0.0
04:35 0.7 53.0 1025.2 12.9 WNW 14.5 0.0
04:40 0.6 54.0 1025.2 11.3 WNW 14.5 0.0
04:45 0.6 55.0 1025.2 8.0 WNW 12.9 0.0
04:50 0.4 54.0 1025.2 8.0 WNW 11.3 0.0
04:55 0.7 51.0 1025.1 11.3 WNW 11.3 0.0
05:00 0.7 55.0 1025.2 6.4 WNW 9.7 0.0
05:05 0.4 54.0 1025.1 11.3 WNW 11.3 0.0
05:10 0.7 52.0 1025.1 8.0 NW 11.3 0.0
05:15 0.9 51.0 1025.0 8.0 NW 9.7 0.0
05:20 1.0 49.0 1024.9 8.0 NW 9.7 0.0
05:25 1.2 46.0 1024.9 6.4 NW 9.7 0.0
05:30 1.2 43.0 1024.9 6.4 NW 8.0 0.0
05:35 1.2 49.0 1024.8 6.4 NW 6.4 0.0
05:40 1.0 43.0 1024.8 6.4 NW 8.0 0.0
05:45 1.2 41.0 1024.8 4.8 NW 8.0 0.0
05:50 1.4 40.0 1024.7 6.4 NW 6.4 0.0
05:55 1.4 39.0 1024.8 4.8 NW 6.4 0.0
06:00 1.4 40.0 1024.8 3.2 NW 6.4 0.0
06:05 1.4 39.0 1024.8 4.8 WNW 4.8 0.0
06:10 1.4 39.0 1024.8 1.6 WNW 4.8 0.0
06:15 1.4 40.0 1024.9 4.8 W 4.8 0.0
06:20 1.5 39.0 1025.0 3.2 WNW 6.4 0.0
06:25 1.4 40.0 1025.0 3.2 WNW 6.4 0.0
06:30 1.4 40.0 1025.0 3.2 WNW 4.8 0.0
06:35 1.3 40.0 1025.1 3.2 WNW 4.8 0.0
06:40 1.2 40.0 1025.1 4.8 NW 4.8 0.0
06:45 1.2 39.0 1025.3 8.0 NW 8.0 0.0
06:50 1.2 39.0 1025.5 8.0 NW 8.0 0.0
06:55 1.3 39.0 1025.5 9.7 NW 9.7 0.0
07:00 1.4 38.0 1025.6 8.0 NW 9.7 0.0
07:05 1.5 40.0 1025.7 8.0 NW 9.7 0.0
07:10 1.7 39.0 1025.9 8.0 NNW 9.7 0.0
07:15 1.9 35.0 1025.9 6.4 NNW 9.7 0.0
07:20 1.8 38.0 1026.2 12.9 NW 12.9 0.0
07:25 1.7 38.0 1026.2 6.4 NW 12.9 0.0
07:30 2.3 32.0 1026.1 4.8 NW 9.7 0.0
07:35 2.8 30.0 1026.2 4.8 NW 6.4 0.0
07:40 3.0 29.0 1026.4 4.8 NW 6.4 0.0
07:45 2.8 30.0 1026.4 4.8 NW 6.4 0.0
07:50 2.9 28.0 1026.3 3.2 W 6.4 0.0
07:55 3.0 32.0 1026.4 0.0 SSW 6.4 0.0
08:00 3.2 39.0 1026.1 1.6 S 6.4 0.0
Máxima 3.3 69.0 1026.6 16.1 W 16.1 0.0
Mínima -0.7 28.0 1024.7
Total 0.0